Date,TemperatureHighF,TemperatureAvgF,TemperatureLowF,DewpointHighF,DewpointAvgF,DewpointLowF,HumidityHigh,HumidityAvg,HumidityLow,PressureMaxIn,PressureMinIn,WindSpeedMaxMPH,WindSpeedAvgMPH,GustSpeedMaxMPH,PrecipitationSumIn
2012-1-1,59,44,36,49,40,33,92,83,65,30.08,29.97,5,0,5,0.00
2012-1-2,60,47,39,52,42,36,93,85,70,30.13,29.99,5,1,5,0.00
2012-1-3,63,48,39,48,42,37,92,80,56,30.19,30.08,6,1,6,0.00
2012-1-4,64,47,38,50,41,34,89,79,57,30.23,30.10,5,0,5,0.00
2012-1-5,65,47,36,50,40,33,90,77,51,30.13,29.95,4,0,4,0.00
2012-1-6,60,45,36,47,39,32,91,79,58,30.01,29.92,6,0,6,0.00
2012-1-7,65,51,36,39,33,29,90,56,26,30.04,29.93,15,4,15,0.00
2012-1-8,62,48,36,45,35,27,79,63,48,30.08,30.00,5,1,5,0.00
2012-1-9,62,45,34,47,37,30,88,75,55,30.11,29.98,4,0,4,0.00
2012-1-10,64,45,35,43,36,31,88,72,42,30.01,29.90,5,1,5,0.00
2012-1-11,62,44,33,44,35,29,86,73,49,29.98,29.84,4,0,4,0.00
2012-1-12,63,45,33,40,33,29,87,66,32,29.97,29.87,6,1,6,0.00
2012-1-13,64,45,33,41,33,28,84,66,37,30.09,29.97,5,1,6,0.00
2012-1-14,63,44,32,42,34,27,85,68,44,30.04,29.89,4,0,4,0.00
2012-1-15,57,46,38,45,36,24,85,70,44,29.95,29.77,13,3,13,0.00
2012-1-16,53,39,29,28,24,21,77,57,31,30.14,29.95,6,1,9,0.00
2012-1-17,52,38,26,33,25,18,72,61,43,30.26,30.14,4,0,4,0.00
2012-1-18,57,44,33,38,31,24,75,61,44,30.25,30.07,5,1,5,0.00
2012-1-19,49,43,37,39,32,26,86,66,53,30.08,29.90,5,1,5,0.07
2012-1-20,52,48,43,50,45,39,93,89,85,29.90,29.50,12,3,12,1.17
2012-1-21,60,52,42,51,45,36,94,78,54,29.97,29.49,11,3,11,0.09
2012-1-22,52,47,42,46,42,37,88,82,72,30.00,29.67,14,2,14,0.27
2012-1-23,58,49,42,50,45,39,93,87,72,29.97,29.49,13,3,13,0.76
2012-1-24,58,47,40,49,43,38,93,86,67,30.25,29.97,3,0,6,0.00
2012-1-25,63,52,43,52,46,40,93,83,66,30.29,30.15,7,1,7,0.00
2012-1-26,66,54,45,59,50,42,93,87,73,30.16,30.04,7,2,7,0.00
2012-1-27,63,52,44,50,39,33,92,64,36,30.10,30.01,12,3,12,0.00
2012-1-28,61,47,35,47,39,29,84,74,58,30.19,30.07,6,0,6,0.00
2012-1-29,65,50,39,49,42,36,90,77,55,30.12,29.93,7,1,7,0.00
2012-1-30,62,52,44,51,45,40,88,77,58,29.95,29.81,7,1,7,0.00
2012-1-31,60,50,42,50,45,39,93,83,65,29.99,29.85,7,1,7,0.00
2012-2-1,62,52,46,52,47,42,91,82,65,30.08,29.98,7,2,7,0.01
2012-2-2,66,51,42,45,41,33,88,70,30,30.05,29.79,7,2,7,0.00
2012-2-3,62,48,38,48,40,35,90,77,56,29.92,29.82,7,1,7,0.00
2012-2-4,65,48,38,42,38,34,88,69,36,29.94,29.88,6,1,6,0.00
2012-2-5,65,50,38,42,37,33,85,65,38,29.95,29.82,6,1,6,0.00
2012-2-6,64,50,38,46,39,33,87,66,39,29.84,29.60,5,1,5,0.00
2012-2-7,59,53,49,54,48,42,90,84,73,29.93,29.62,2,0,4,0.25
2012-2-8,65,54,45,54,48,42,95,81,62,30.08,29.93,6,1,9,0.00
2012-2-9,68,54,44,55,47,41,91,80,59,30.12,29.95,9,1,9,0.01
2012-2-10,68,55,43,56,48,40,93,80,58,30.01,29.87,7,2,7,0.00
2012-2-11,63,54,48,52,48,43,91,80,60,29.88,29.80,7,1,7,0.00
2012-2-12,63,50,41,49,45,38,94,82,59,29.88,29.78,7,1,7,0.14
2012-2-13,54,48,41,47,42,37,90,82,65,29.82,29.71,7,1,7,0.13
2012-2-14,62,48,36,46,40,33,92,77,52,29.90,29.79,10,2,10,0.00
2012-2-15,59,50,43,42,32,27,80,52,32,29.98,29.80,15,4,15,0.00
2012-2-16,66,50,40,38,33,29,69,53,29,30.08,29.98,9,2,9,0.00
2012-2-17,67,52,39,45,38,32,80,62,40,30.10,29.96,4,1,4,0.00
2012-2-18,61,51,44,51,44,35,87,79,66,29.99,29.89,8,1,8,0.00
2012-2-19,61,50,42,40,34,29,76,57,36,29.95,29.85,8,2,8,0.00
2012-2-20,60,52,46,48,44,39,83,73,58,30.03,29.90,10,2,10,0.01
2012-2-21,69,54,40,51,44,37,88,71,52,30.12,30.01,5,1,5,0.00
2012-2-22,74,57,44,52,45,40,86,66,42,30.11,29.87,6,1,6,0.00
2012-2-23,73,61,53,46,33,22,72,39,16,29.88,29.75,15,6,15,0.00
2012-2-24,73,58,42,44,36,27,62,46,33,29.95,29.80,7,2,9,0.00
2012-2-25,64,52,42,40,33,28,78,50,29,30.14,29.95,13,3,13,0.00
2012-2-26,62,49,39,34,29,24,63,47,26,30.01,29.66,7,2,7,0.00
2012-2-27,60,46,35,38,33,29,80,61,34,29.76,29.61,7,1,7,0.00
2012-2-28,59,48,37,42,36,30,80,64,44,30.03,29.76,12,3,12,0.02
2012-2-29,56,50,46,48,42,37,88,76,63,30.05,29.85,11,3,11,0.31
2012-3-1,55,48,45,47,42,40,87,81,74,30.07,29.97,11,2,11,0.00
2012-3-2,64,50,40,41,33,28,86,55,27,30.18,30.06,10,3,10,0.00
2012-3-3,52,42,37,42,34,31,84,75,66,30.20,30.14,2,0,2,0.00
2012-3-13,58,56,54,52,51,47,88,83,78,29.82,29.77,7,3,7,0.27
2012-3-14,59,56,53,56,53,50,92,90,88,29.95,29.79,10,2,10,0.84
2012-3-15,65,59,56,59,55,53,92,88,81,29.97,29.86,6,1,6,0.03
2012-3-16,60,56,50,57,53,46,92,89,86,29.87,29.50,10,3,10,0.76
2012-3-17,54,48,41,46,44,39,93,84,69,29.53,29.32,7,1,7,0.14
2012-3-18,60,49,42,46,40,30,91,71,39,29.75,29.41,10,2,10,0.01
2012-3-19,59,48,36,41,37,32,87,67,46,29.91,29.75,5,1,5,0.01
2012-3-20,68,57,49,46,43,38,76,60,43,30.03,29.91,5,1,5,0.00
2012-3-21,74,60,48,56,49,42,85,68,51,29.99,29.77,7,1,7,0.00
2012-3-22,67,58,47,53,46,32,86,65,31,29.81,29.71,11,3,11,0.00
2012-3-23,66,53,42,44,38,34,79,58,39,29.92,29.70,8,2,8,0.00
2012-3-24,57,51,47,45,41,37,84,69,58,29.74,29.64,8,2,8,0.00
2012-3-25,63,52,44,50,44,41,92,78,54,29.70,29.60,9,1,9,0.54
2012-3-26,64,54,42,49,43,38,87,69,52,29.92,29.68,8,2,8,0.00
2012-3-27,60,54,50,50,46,41,91,75,53,29.86,29.71,6,1,6,1.03
2012-3-28,70,58,52,58,51,46,92,78,50,29.93,29.76,7,2,8,0.10
2012-3-29,67,57,46,55,50,43,90,77,61,29.95,29.87,6,1,6,0.02
2012-3-30,71,61,53,58,54,49,91,77,61,29.93,29.71,8,2,8,0.03
2012-3-31,64,56,48,53,48,43,85,76,59,29.82,29.51,12,3,12,0.30
2012-4-1,67,55,44,44,40,31,86,61,29,30.07,29.81,10,2,10,0.00
2012-4-2,71,57,46,47,42,37,75,60,38,30.05,29.83,10,2,10,0.00
2012-4-3,72,59,49,51,47,42,80,66,43,29.89,29.76,9,3,9,0.02
2012-4-4,59,49,41,48,41,37,86,75,54,30.00,29.85,7,1,7,0.02
2012-4-5,65,56,44,36,34,29,69,45,28,29.96,29.86,11,2,11,0.00
2012-4-6,67,51,37,43,35,28,84,57,27,30.10,29.96,7,1,7,0.00
2012-4-7,72,55,38,46,40,32,82,58,37,29.98,29.83,5,1,5,0.00
2012-4-8,77,59,44,52,44,38,82,59,38,29.88,29.78,6,1,7,0.00
2012-4-9,76,60,44,48,42,36,81,54,30,29.82,29.62,6,1,6,0.00
2012-4-10,63,56,50,54,47,40,86,74,59,29.73,29.62,5,1,5,0.09
2012-4-11,54,53,53,50,50,49,89,88,86,29.63,29.61,3,1,3,0.10
2012-4-12,56,56,56,49,49,49,78,77,76,29.74,29.73,3,1,3,0.02
2012-4-13,60,53,48,46,44,42,85,72,59,29.65,29.57,8,1,8,0.01
2012-4-14,71,58,45,51,46,42,89,67,46,29.91,29.65,9,2,9,0.01
2012-4-15,75,61,48,56,50,43,87,67,49,30.02,29.90,6,2,6,0.00
2012-4-16,75,61,49,52,46,42,79,60,31,30.04,29.95,8,2,8,0.00
2012-4-17,77,62,49,59,50,44,86,65,39,29.98,29.84,9,2,9,0.00
2012-4-18,78,64,52,57,52,46,84,66,44,29.95,29.86,7,2,7,0.00
2012-4-19,86,70,55,61,56,50,86,63,40,29.95,29.83,8,2,10,0.00
2012-4-20,91,76,60,64,59,54,81,58,35,29.87,29.73,6,1,6,0.00
2012-4-21,93,77,60,66,60,52,78,58,35,29.77,29.63,6,1,6,0.00
2012-4-22,94,76,62,69,62,52,83,62,41,29.70,29.60,6,1,6,0.00
2012-4-23,77,65,57,59,54,50,79,66,52,29.80,29.64,11,4,11,0.00
2012-4-24,79,67,56,61,55,50,84,66,49,29.87,29.73,6,1,6,0.00
2012-4-25,73,64,60,61,56,51,87,75,64,29.81,29.58,6,1,6,0.00
2012-4-26,71,62,52,58,52,43,90,71,46,29.98,29.57,10,3,10,0.00
2012-4-27,76,61,45,48,43,35,84,57,25,30.03,29.90,9,2,9,0.00
2012-4-28,85,68,49,55,48,42,79,53,29,29.91,29.64,8,2,8,0.00
2012-4-29,87,70,54,59,53,46,83,58,27,29.72,29.64,5,1,5,0.00
2012-4-30,87,70,59,62,55,49,76,59,38,29.76,29.62,9,2,9,0.00
2012-5-1,80,64,51,55,49,44,80,58,38,29.70,29.63,8,2,8,0.00
2012-5-2,76,61,50,54,46,40,75,59,41,29.75,29.65,11,3,11,0.00
2012-5-3,71,60,52,56,49,42,80,69,57,29.89,29.72,10,3,10,0.00
2012-5-4,76,63,52,54,50,45,85,65,41,29.99,29.88,8,2,8,0.00
2012-5-5,81,66,54,46,40,34,72,41,21,30.01,29.81,12,3,12,0.00
2012-5-6,88,72,56,45,40,33,51,34,18,29.86,29.77,8,2,9,0.00
2012-5-7,92,74,56,47,42,32,58,36,15,29.82,29.71,7,1,7,0.00
2012-5-8,93,74,54,53,47,39,74,43,17,29.77,29.66,5,1,5,0.00
2012-5-9,92,74,58,58,51,46,65,47,29,29.75,29.62,8,2,8,0.00
2012-5-10,88,72,53,52,44,39,76,41,19,29.72,29.61,8,2,8,0.00
2012-5-11,94,75,57,50,42,36,54,34,16,29.74,29.64,6,1,6,0.00
2012-5-12,95,74,57,56,50,41,65,44,23,29.84,29.74,7,1,7,0.00
2012-5-13,80,67,57,57,50,45,67,55,42,29.82,29.74,9,3,9,0.00
2012-5-14,79,66,55,54,50,46,75,57,39,29.90,29.80,8,3,8,0.00
2012-5-15,86,68,54,59,52,46,79,59,38,29.84,29.72,8,2,8,0.00
2012-5-16,88,68,54,64,54,46,80,62,42,29.82,29.66,8,2,8,0.00
2012-5-17,82,66,55,58,51,47,78,61,42,29.69,29.56,9,3,9,0.00
2012-5-18,88,70,52,54,45,25,80,48,13,29.74,29.65,8,2,8,0.00
2012-5-19,91,72,56,58,50,45,69,49,27,29.78,29.69,6,1,6,0.00
2012-5-20,95,75,57,58,52,46,69,48,26,29.77,29.66,7,2,7,0.00
2012-5-21,87,71,58,58,54,48,72,55,38,29.85,29.74,9,3,9,0.00
2012-5-22,88,71,57,60,54,48,83,58,35,29.88,29.76,8,2,8,0.00
2012-5-23,85,70,55,55,46,36,73,46,19,29.80,29.65,8,2,10,0.00
2012-5-24,85,70,55,52,47,40,71,46,30,29.68,29.42,12,2,12,0.00
2012-5-25,74,62,51,50,43,38,74,50,31,29.61,29.48,8,1,8,0.00
2012-5-26,66,58,53,53,49,46,78,73,60,29.69,29.60,6,1,6,0.00
2012-6-4,73,65,56,58,52,45,76,64,50,29.88,29.71,11,3,11,0.00
2012-6-5,75,63,51,51,43,38,75,51,29,29.98,29.87,7,2,7,0.00
2012-6-6,83,69,56,49,45,35,60,44,21,29.89,29.72,8,2,8,0.00
2012-6-7,89,71,56,57,51,45,70,52,33,29.79,29.69,8,2,8,0.00
2012-6-8,87,71,56,55,50,43,76,50,29,29.76,29.64,9,2,9,0.00
2012-6-9,84,69,54,45,40,34,71,38,21,29.79,29.64,12,3,12,0.00
2012-6-10,93,77,62,50,43,36,43,32,17,29.71,29.65,9,2,9,0.00
2012-6-11,99,79,59,55,48,37,64,37,13,29.75,29.66,6,1,6,0.00
2012-6-12,99,78,61,61,55,48,66,46,25,29.75,29.61,7,2,7,0.00
2012-6-13,98,77,61,65,56,51,71,51,29,29.65,29.48,6,2,7,0.00
2012-6-14,98,77,59,63,54,48,69,48,29,29.56,29.48,9,2,9,0.00
2012-6-15,99,78,58,58,52,46,65,42,24,29.58,29.51,7,2,7,0.00
2012-6-16,106,86,66,61,57,51,70,41,22,29.62,29.52,8,1,8,0.00
2012-6-17,101,82,68,64,58,51,63,46,26,29.63,29.52,9,2,9,0.00
2012-6-18,88,72,60,60,53,48,71,54,38,29.68,29.55,10,4,10,0.00
2012-6-19,93,74,56,61,51,42,76,49,21,29.68,29.58,8,1,8,0.00
2012-6-20,100,79,60,55,51,44,70,41,21,29.63,29.53,7,2,7,0.00
2012-6-21,77,68,58,56,51,47,68,55,45,29.69,29.55,13,5,13,0.00
2012-6-22,77,67,55,57,52,46,76,60,50,29.74,29.65,10,3,10,0.00
2012-6-23,80,66,56,53,49,46,77,56,32,29.73,29.64,8,3,8,0.00
2012-6-24,82,66,51,51,46,41,79,52,27,29.82,29.72,8,2,8,0.00
2012-6-25,80,66,53,54,49,44,76,55,38,29.88,29.78,10,3,10,0.00
2012-6-26,84,68,53,57,49,39,82,55,22,29.86,29.66,6,1,6,0.00
2012-6-27,92,73,55,56,49,43,79,48,22,29.71,29.64,6,1,6,0.00
2012-6-28,92,74,60,61,53,46,68,50,30,29.83,29.71,9,2,9,0.00
2012-6-29,88,72,60,62,56,52,75,58,39,29.86,29.76,8,3,8,0.00
2012-6-30,92,74,60,66,59,53,79,62,42,29.79,29.66,8,2,8,0.00
2012-7-1,89,74,63,66,60,56,79,63,43,29.74,29.62,7,2,8,0.00
2012-7-2,94,75,62,69,59,52,79,60,36,29.67,29.56,9,3,9,0.00
2012-7-3,94,75,59,64,56,51,76,54,31,29.69,29.55,6,2,6,0.00
2012-7-4,96,76,63,66,57,50,69,52,32,29.62,29.55,8,2,8,0.00
2012-7-5,88,71,60,60,53,50,71,55,37,29.75,29.62,12,4,12,0.00
2012-7-6,94,74,57,63,54,49,77,54,24,29.80,29.71,6,2,6,0.00
2012-7-7,100,80,61,63,53,45,68,42,23,29.77,29.66,6,1,6,0.00
2012-7-8,99,78,62,62,54,46,65,45,27,29.77,29.69,7,2,7,0.00
2012-7-9,98,76,60,62,54,48,69,48,24,29.80,29.69,6,2,6,0.00
2012-7-10,103,79,58,62,54,48,73,45,19,29.74,29.57,4,1,4,0.00
2012-7-11,106,84,63,63,54,45,65,39,16,29.67,29.54,5,1,5,0.00
2012-7-12,104,83,67,67,58,51,60,44,26,29.61,29.52,6,2,8,0.00
2012-7-13,88,72,62,61,54,50,69,54,39,29.67,29.57,10,4,10,0.00
2012-7-14,89,71,57,64,56,50,79,60,41,29.75,29.62,9,3,9,0.00
2012-7-15,95,74,58,67,57,51,79,58,34,29.69,29.54,9,2,9,0.00
2012-7-16,78,68,60,57,54,52,76,62,44,29.65,29.58,11,4,11,0.00
2012-10-4,79,70,60,59,55,50,70,59,50,29.87,29.80,8,3,8,0.00
2012-10-5,78,66,58,59,54,50,80,67,50,29.93,29.84,8,2,8,0.00
2012-10-6,77,64,55,58,53,50,85,69,49,29.87,29.74,7,1,7,0.00
2012-10-7,79,64,54,60,53,49,85,68,48,29.80,29.69,7,1,7,0.00
2012-10-8,77,63,54,56,51,47,80,66,47,29.82,29.75,8,2,8,0.00
2012-10-9,76,62,53,57,52,48,86,70,44,29.83,29.71,6,1,6,0.00
2012-10-10,79,63,52,57,52,46,85,67,45,29.75,29.63,7,1,7,0.00
2012-10-11,66,59,54,55,51,48,82,75,65,29.77,29.64,10,2,11,0.00
2012-10-12,65,58,54,54,51,48,83,77,66,30.03,29.76,4,1,4,0.00
2012-10-13,75,61,50,58,52,46,89,73,50,30.11,29.95,6,1,6,0.00
2012-10-14,79,64,53,62,56,49,87,74,52,30.02,29.85,5,0,5,0.00
2012-10-15,83,68,56,63,57,52,88,71,46,29.88,29.72,5,1,5,0.00
2012-10-16,87,71,61,67,60,54,83,69,45,29.77,29.63,4,1,4,0.00
2012-10-17,84,69,59,54,44,37,65,42,23,29.72,29.62,7,1,7,0.00
2012-10-18,86,69,56,62,54,48,79,60,41,29.81,29.69,8,1,8,0.00
2012-10-19,81,69,61,62,58,54,83,70,51,29.84,29.68,6,2,6,0.00
2012-10-20,77,64,56,61,54,48,84,72,55,29.69,29.55,7,2,7,0.00
2012-10-21,68,59,53,50,46,41,77,63,44,29.71,29.60,9,2,9,0.00
2012-10-22,63,56,52,56,50,47,92,82,68,29.74,29.54,10,2,10,0.25
2012-10-23,65,55,51,53,48,45,90,78,57,29.87,29.73,6,1,6,0.11
2012-10-24,65,56,51,54,50,45,89,80,66,30.00,29.82,7,1,7,0.11
2012-10-25,67,59,54,53,49,41,84,71,53,30.09,30.00,8,2,8,0.00
2012-10-26,72,58,47,48,44,39,76,62,40,30.04,29.88,5,1,5,0.00
2012-10-27,76,60,49,56,50,44,86,71,48,29.89,29.74,4,0,4,0.00
2012-10-28,78,62,51,60,53,47,88,73,51,29.82,29.74,4,0,4,0.00
2012-10-29,77,62,52,61,54,49,89,78,53,29.92,29.80,4,0,4,0.00
2012-10-30,75,61,52,63,54,48,90,80,62,29.88,29.74,5,1,5,0.00
2012-10-31,67,60,56,58,55,52,90,82,69,29.81,29.75,6,2,8,0.11
2012-11-1,70,61,54,61,56,51,93,85,65,29.84,29.80,4,0,4,0.23
2012-11-2,71,59,52,59,53,49,92,83,63,29.88,29.81,4,1,4,0.00
2012-11-3,72,59,50,59,52,47,92,80,55,29.95,29.85,5,0,5,0.00
2012-11-4,74,60,51,61,54,47,91,81,58,30.02,29.93,5,0,5,0.00
2012-11-5,77,61,51,62,55,48,91,80,57,29.99,29.85,4,0,4,0.00
2012-11-6,77,61,51,62,55,48,92,80,57,29.91,29.79,4,0,4,0.00
2012-11-7,73,59,51,62,54,48,91,82,64,29.83,29.66,10,2,10,0.00
2012-11-8,61,53,45,51,46,40,82,77,61,29.73,29.63,10,3,10,0.07
2012-11-9,58,49,44,46,42,39,88,76,54,29.76,29.70,5,1,5,0.00
2012-11-10,58,46,38,44,39,35,89,76,52,30.06,29.76,5,0,5,0.00
2012-11-11,59,46,36,43,38,33,88,75,53,30.20,30.06,5,0,5,0.00
2012-11-12,62,48,39,43,39,35,88,72,44,30.20,30.07,5,1,5,0.00
2012-11-13,63,50,40,48,42,35,87,75,55,30.09,29.91,4,0,4,0.00
2012-11-14,68,53,44,51,45,40,89,76,53,29.95,29.83,5,0,5,0.00
2012-11-15,48,46,45,43,42,41,87,85,83,29.84,29.82,0,0,0,0.00
2012-11-20,65,62,59,55,54,54,85,76,70,29.88,29.82,6,2,6,0.03
2012-11-21,64,57,50,59,54,47,92,88,79,29.99,29.84,5,0,5,0.28
2012-11-22,64,52,46,52,46,42,92,80,59,30.06,29.98,6,1,6,0.00
2012-11-23,65,51,41,54,46,38,93,83,65,30.09,29.97,4,1,4,0.00
2012-11-24,64,50,42,54,46,39,93,84,68,30.01,29.83,4,0,4,0.00
2012-11-25,64,50,41,55,45,38,92,85,69,29.84,29.72,4,0,4,0.00
2012-11-26,64,50,41,54,46,38,92,85,70,29.88,29.77,5,0,5,0.00
2012-11-27,62,51,44,54,47,41,93,86,74,29.93,29.81,2,0,2,0.00
2012-11-28,60,54,50,57,52,47,94,91,89,29.86,29.66,10,2,10,0.32
2012-11-29,62,58,54,57,54,51,93,88,76,29.86,29.67,13,3,13,0.21
2012-11-30,62,59,56,60,57,54,96,94,91,29.82,29.56,11,3,11,1.21
2012-12-1,66,59,55,62,57,54,95,93,85,29.84,29.66,12,3,12,0.59
2012-12-2,62,56,46,58,53,43,95,91,77,29.91,29.52,13,2,13,0.92
2012-12-3,61,50,41,55,48,39,95,90,78,30.01,29.89,5,0,5,0.00
2012-12-4,62,57,52,56,53,50,93,88,81,30.04,29.95,4,0,4,0.03
2012-12-5,58,56,55,57,54,53,95,94,90,29.99,29.91,4,1,4,0.33
2012-12-6,62,56,47,56,52,45,95,88,72,29.94,29.86,6,1,6,0.00
2012-12-7,59,48,40,52,44,38,95,87,58,29.95,29.86,4,0,4,0.00
2012-12-8,57,48,42,50,44,39,95,88,67,29.93,29.83,4,1,4,0.00
2012-12-9,61,48,38,48,42,36,94,80,58,30.00,29.89,5,0,5,0.00
2012-12-10,60,48,39,52,44,37,93,85,67,30.06,29.91,5,0,5,0.00
2012-12-11,60,49,41,55,46,38,94,88,80,29.91,29.62,10,2,10,0.00
2012-12-12,58,50,42,48,44,38,91,83,64,29.70,29.60,7,2,7,0.02
2012-12-13,54,43,36,45,39,33,92,85,71,29.74,29.64,8,1,8,0.00
2012-12-14,52,42,34,45,38,31,93,86,75,29.83,29.62,5,0,5,0.00
2012-12-15,45,40,34,43,38,31,94,91,88,29.92,29.83,2,0,2,0.22
2012-12-16,54,48,40,47,44,38,94,84,74,29.94,29.82,8,1,8,0.04
2012-12-17,60,52,42,56,49,40,94,90,81,29.85,29.75,8,2,8,0.12
2012-12-18,53,44,38,43,35,30,93,72,45,29.97,29.75,8,2,8,0.00
2012-12-19,50,39,31,36,31,27,86,73,51,30.13,29.97,4,1,4,0.00
2012-12-20,56,45,33,38,34,28,85,69,48,30.06,29.81,9,2,9,0.00
2012-12-21,53,47,43,45,38,32,87,72,61,29.81,29.67,10,2,10,0.29
2012-12-22,56,50,47,51,46,44,91,87,78,29.90,29.63,10,3,10,0.71
2012-12-23,52,50,49,49,48,46,94,92,89,29.90,29.67,15,4,15,0.62
2012-12-24,51,45,39,48,43,37,96,91,84,30.02,29.78,6,1,6,0.00
2012-12-25,48,44,38,46,42,36,95,94,91,29.96,29.58,7,1,7,0.77
2012-12-26,55,46,39,51,44,37,95,91,82,29.89,29.63,7,2,7,0.00
2012-12-27,51,42,36,46,40,34,95,90,79,29.97,29.88,8,1,8,0.00
2012-12-28,48,41,34,44,38,32,95,90,82,30.00,29.88,6,1,6,0.00
2012-12-29,53,44,36,45,40,33,92,85,71,29.89,29.81,7,1,7,0.00
2012-12-30,55,43,34,44,36,32,95,79,54,29.96,29.84,9,2,9,0.00
2012-12-31,51,42,33,41,34,28,84,73,63,30.10,29.96,10,1,10,0.00
2013-1-1,52,40,33,40,34,29,91,79,52,30.10,30.01,8,1,8,0.00